Regional Weather Roundup
Issued by NWS

Home | Current Version | Previous Version | Text Only | Print | Product List | Glossary Off
Versions: 1 2 3 4 5 6 7 8 9 10 11 12 13 14 15 16 17 18 19 20 21 22 23 24 25 26 27 28 29 30 31 32 33 34 35 36 37 38 39 40 41 42 43 44 45 46 47 48 49 50

000
ASUS43 KMPX 080701
RWRMN
WEATHER ROUNDUP FOR MINNESOTA
NATIONAL WEATHER SERVICE TWIN CITIES/CHANHASSEN MN
100 AM CST MON FEB 08 2016


NOTE: "FAIR" INDICATES FEW OR NO CLOUDS BELOW 12,000 FEET WITH NO
SIGNIFICANT WEATHER AND/OR OBSTRUCTIONS TO VISIBILITY. N/A MEANS
CURRENT SKY AND/OR WEATHER CONDITIONS ARE NOT AVAILABLE.

MNZ060>063-068>070-080800-
   Twin Cities Metro

CITY           SKY/WX    TMP DP  RH WIND       PRES   REMARKS
TWIN CITIES    FLURRIES  15   9  76 NW16      29.78S WCI  -1
ST PAUL        MIX PCPN  16   8  71 NW22G30   29.78S WCI  -2
CRYSTAL        LGT SNOW  16   9  74 NW15G25   29.78S WCI   1
BLAINE         FLURRIES  18  10  73 NW14G26   29.77S WCI   4
LAKEVILLE      FLURRIES  14   9  79 NW18G25   29.76S WCI  -3
EDEN PRAIRIE   CLOUDY    16   7  67 NW16G24   29.78R WCI   1
SOUTH ST PAUL  CLOUDY    17   9  69 NW15G25   29.77S WCI   3
LAKE ELMO      CLOUDY    18  10  73 NW13G23   29.76S WCI   4
$$
MNZ001>005-007-008-013>017-022>024-027-028-080800-
   Northwest Minnesota

CITY           SKY/WX    TMP DP  RH WIND       PRES   REMARKS
BEMIDJI        CLOUDY     4  -1  78 NW17G24   29.88R WCI -15
HALLOCK        LGT SNOW  10   7  85 N21G30    30.05S WCI  -9
ROSEAU         CLOUDY     7   0  72 NW20      29.97R HAZE    WCI -13
WARROAD        LGT SNOW   5   0  78 NW17      29.94S WCI -14
CROOKSTON      LGT SNOW  10   9  92 N28G35    30.03F VSB 3/4 WCI -11
FOSSTON        LGT SNOW   3   0  85 N22G32    29.95S VSB 1   WCI -19
DETROIT LAKES  LGT SNOW  10   7  85 N26G36    29.93S WCI -11
MOORHEAD       CLOUDY    12  10  92 N33G40    30.03R WCI -10
PARK RAPIDS    FLURRIES   7   0  73 NW18G30   29.86R WCI -12
MAHNOMEN       LGT SNOW   7   4  84 N20G26    29.95R WCI -12
$$
MNZ006-009>011-018-025>026-080800-
   North Central Minnesota

CITY           SKY/WX    TMP DP  RH WIND       PRES   REMARKS
BAUDETTE       FLURRIES   4  -2  76 NW17G26   29.89R WCI -16
FLAG ISLAND    LGT SNOW   3   0  85 NW23      29.92S WCI -19
INTL FALLS     LGT SNOW   8   2  76 NW14      29.82S WCI  -8
WASKISH        FLURRIES   5   1  85 NW12      29.89S WCI -11
LONGVILLE      CLOUDY     7   1  78 NW9G17    29.83S WCI  -7
GRAND RAPIDS   CLOUDY     9   1  72 NW23G29   29.77S WCI -12
CRANE LAKE     CLOUDY    14  10  85 N6        29.77R WCI   5
ORR            FLURRIES   9   3  78 NW14G21   29.74R WCI  -8
COOK           LGT SNOW   9   7  92 NW10G16   29.75R WCI  -6
WALKER         FLURRIES   6   0  77 NW14G20   29.85S WCI -11
$$
MNZ012-019>021-037-080800-
   Northeast Minnesota

CITY           SKY/WX    TMP DP  RH WIND       PRES   REMARKS
DULUTH         LGT SNOW  14   9  80 NW17G28   29.66R BLWGSNOWWCI  -3
ELY            FLURRIES  14  10  85 N6        29.69R WCI   5
HIBBING        LGT SNOW   8   4  83 NW18G30   29.73R FOG     WCI -11
EVELETH        LGT SNOW  12   9  85 NW14G22   29.72R WCI  -3
DULUTH HARBOR  CLOUDY    21  16  79 NW18      29.71S HAZE    WCI   6
TWO HARBORS    CLOUDY    25  18  74 NW9G22    29.63R WCI  15
SILVER BAY     FLURRIES  23  18  80 NW3       29.63R
GRAND MARAIS     N/A     17  10  74 VRB7      29.66R WCI   8
G MARAIS ARPRT LGT SNOW   9   3  78 NW12G21   29.57S WCI  -6
$$
MNZ029>031-032-039>041-046>048-054>057-064-080800-
   West Central Minnesota

CITY           SKY/WX    TMP DP  RH WIND       PRES   REMARKS
FERGUS FALLS   LGT SNOW  10   7  85 N32G43    29.98F VSB 1   WCI -12
WHEATON        LGT SNOW  18  12  79 NW25G33   30.02S WCI  -1
MORRIS         HVY SNOW  12   9  85 N36G43    29.93R VSB<1/4 WCI -11
ALEXANDRIA     LGT SNOW   9   3  77 NW17G35   29.88R WCI  -9
ELBOW LAKE     LGT SNOW  10   6  85 NW26G39   29.95R WCI -11
WADENA         LGT SNOW   7   1  78 NW25G32   29.87R WCI -15
GLENWOOD       LGT SNOW  10   5  79 NW25G35   29.88R WCI -10
APPLETON       SNOW      16  10  79 N36G45    29.96R VSB 1/2 WCI  -6
BENSON         LGT SNOW  12   7  79 N32G47    29.92R WCI -10
ORTONVILLE     LGT SNOW  16  10  79 N22G31    29.98S WCI  -2
MADISON        LGT SNOW  18  12  79 N28G39    29.98S WCI  -1
WILLMAR        CLOUDY    14   9  79 NW28G39   29.89S WCI  -6
$$
MNZ033>034-036-042>043-049>051-058-059-080800-
   Central Minnesota

CITY           SKY/WX    TMP DP  RH WIND       PRES   REMARKS
ST CLOUD       CLOUDY    13   5  70 NW17G28   29.81R WCI  -4
SAUK CENTRE    LGT SNOW  10   6  84 NW21G28   29.86S WCI -10
PAYNESVILLE    LGT SNOW  11   7  83 NW15G26   29.86S WCI  -5
AITKIN         MIX PCPN  12   3  67 NW8       29.78R WCI   1
PINE RIVER     CLOUDY     9   1  72 NW14G23   29.87R WCI  -8
BRAINERD       CLOUDY    10   4  76 NW16      29.82R WCI  -7
STAPLES        LGT SNOW   9   3  78 NW15G22   29.85R WCI  -8
LONG PRAIRIE   LGT SNOW  10   5  79 NW20G25   29.85R WCI  -8
LITTLE FALLS   CLOUDY    12   3  67 NW10G22   29.84S WCI  -1
LITCHFIELD     LGT SNOW  12  10  92 NW22G32   29.84S WCI  -7
BUFFALO        FLURRIES  14   8  75 NW10G24   29.82S WCI   1
MAPLE LAKE     CLOUDY    15   8  76 NW17G29   29.82S WCI  -2
$$
MNZ037-044-045-052-053-080800-
   East Central Minnesota

CITY           SKY/WX    TMP DP  RH WIND       PRES   REMARKS
PRINCETON      CLOUDY    16   9  73 NW13G20   29.79R WCI   2
MORA           FLURRIES  14   9  79 NW16G25   29.78S WCI  -2
CAMBRIDGE      LGT SNOW  16   9  73 NW10G21   29.76S WCI   3
RUSH CITY      CLOUDY    15   9  78 NW9G24    29.76S WCI   3
MOOSE LAKE     LGT SNOW  14   9  79 NW12G18   29.72S WCI   0
HINCKLEY       FLURRIES  18  10  73 NW10      29.75R WCI   6
CLOQUET        LGT SNOW  12   9  85 NW18G25   29.70R WCI  -5
MCGREGOR       CLOUDY    12   9  85 NW14G22   29.77S WCI  -3
$$
MNZ071>073-080-081-089-090-097-098-080800-
   Southwest Minnesota

CITY           SKY/WX    TMP DP  RH WIND       PRES   REMARKS
MONTEVIDEO     LGT SNOW  14  12  92 N38G48    29.94F WCI  -9
GRANITE FALLS  LGT SNOW  17  13  86 NW32G40   29.95S VSB 1   WCI  -4
CANBY          LGT SNOW  20  17  88 NW17G25   29.98R WCI   6
MARSHALL       LGT SNOW  17  12  80 N31G43    29.92R WCI  -3
REDWOOD FALLS  LGT SNOW  15   7  70 NW25G45   29.89R WCI  -4
OLIVIA         LGT SNOW  16  10  79 NW29G36   29.87S WCI  -4
PIPESTONE      CLOUDY    19  10  68 N22G33    29.92S WCI   3
WINDOM         SNOW      16  12  86 NW36G47   29.85F VSB 1/2 WCI  -6
WORTHINGTON    CLOUDY   N/A N/A N/A NW31      29.90R
JACKSON        CLOUDY    18  12  79 NW38G45   29.85S WCI  -4
TRACY          LGT SNOW  18  13  82 N26G36    29.91S WCI  -1
SLAYTON        LGT SNOW  17  14  88 NW26G38   29.89F WCI  -2
$$
MNZ065>067-074>077-082>085-091>093-080800-
   South Central Minnesota

CITY           SKY/WX    TMP DP  RH WIND       PRES   REMARKS
MANKATO        CLOUDY   N/A N/A N/A NW20G35   29.80S
NEW ULM        LGT SNOW  14  10  85 NW32G38   29.80F VSB 3/4 WCI  -7
ST JAMES       HVY SNOW  16  14  93 NW33G47   29.86S VSB 1/4 WCI  -5
FAIRMONT       CLOUDY   N/A N/A N/A NW31G38   29.81F
GLENCOE        CLOUDY    15  10  81 NW21G31   29.82S HAZE    WCI  -3
FARIBAULT      FLURRIES  16   9  73 NW16G22   29.78S WCI   0
OWATONNA       LGT SNOW  16  10  79 NW24      29.76S WCI  -3
WASECA         CLOUDY    14  10  85 NW26G32   29.79F WCI  -6
ALBERT LEA     LGT SNOW  16  12  86 NW16G28   29.76S WCI   0
$$
MNZ078>079-086>088-094>096-080800-
   Southeast Minnesota

CITY           SKY/WX    TMP DP  RH WIND       PRES   REMARKS
ROCHESTER      MIX PCPN  16  10  77 NW21G32   29.70S WCI  -1
RED WING       FLURRIES  18   9  68 NW12G21   29.74S WCI   5
STANTON        CLOUDY    17  10  71 NW16      29.75S WCI   2
DODGE CENTER   FLURRIES  16  10  79 NW20G26   29.72S WCI  -1
WINONA         CLOUDY    23  18  80 NW12      29.72S WCI  12
AUSTIN         FLURRIES  16  10  79 NW17G32   29.74S WCI   0
PRESTON        LGT SNOW  16  11  80 NW20G28   29.70S WCI  -1
$$
ABBREVIATIONS USED IN REMARKS
   TC - TEMPERATURES IN CELSIUS
  WCI - WIND CHILL INDEX
   HX - HEAT INDEX
  VSB - VISIBILITY
$$



USA.gov is the U.S. government's official web portal to all federal, state and local government web resources and services.